This is the latest recevied weather packets stored in our database for station/object K6MBY. If no packets are shown the sender has not sent any weather packets the latest 10 day(s).
| Time | Temp. | Humidity | Pressure | Rain* | Wind** | Luminosity | Snow |
|---|---|---|---|---|---|---|---|
| 1777611164 | 13.89° C | 75% | 1020.3 hPa | 0 mm | - | 0 W/m² | - |
| 1777610863 | 13.89° C | 75% | 1020.3 hPa | 0 mm | - | 0 W/m² | - |
| 1777610560 | 13.33° C | 76% | 1020.4 hPa | 0 mm | - | 0 W/m² | - |
| 1777610254 | 13.33° C | 77% | 1020.3 hPa | 0 mm | - | 0 W/m² | - |
| 1777609952 | 13.33° C | 78% | 1020.3 hPa | 0 mm | - | 0 W/m² | - |
| 1777609647 | 12.78° C | 78% | 1020.4 hPa | 0 mm | - | 0 W/m² | - |
| 1777609345 | 12.78° C | 80% | 1020.5 hPa | 0 mm | - | 0 W/m² | - |
| 1777609043 | 12.22° C | 80% | 1020.6 hPa | 0 mm | - | 0 W/m² | - |
| 1777608740 | 12.22° C | 81% | 1020.4 hPa | 0 mm | - | 0 W/m² | - |
| 1777608436 | 12.22° C | 82% | 1020.4 hPa | 0 mm | - | 0 W/m² | - |
| 1777608134 | 12.22° C | 80% | 1020.4 hPa | 0 mm | - | 0 W/m² | - |
| 1777607831 | 12.22° C | 81% | 1020.4 hPa | 0 mm | - | 0 W/m² | - |
| 1777607527 | 12.22° C | 81% | 1020.3 hPa | 0 mm | - | 0 W/m² | - |
| 1777607223 | 12.22° C | 81% | 1020.2 hPa | 0 mm | - | 0 W/m² | - |
| 1777606920 | 12.22° C | 82% | 1020.2 hPa | 0 mm | - | 0 W/m² | - |
| 1777606615 | 12.22° C | 83% | 1020.1 hPa | 0 mm | - | 1 W/m² | - |
| 1777606310 | 12.22° C | 82% | 1020.1 hPa | 0 mm | - | 1 W/m² | - |
| 1777606006 | 11.67° C | 83% | 1020 hPa | 0 mm | - | 2 W/m² | - |
| 1777605702 | 11.67° C | 83% | 1020.2 hPa | 0 mm | - | 4 W/m² | - |
| 1777605401 | 11.67° C | 85% | 1020.1 hPa | 0 mm | - | 6 W/m² | - |
| 1777605098 | 11.67° C | 85% | 1020.2 hPa | 0 mm | - | 10 W/m² | - |
| 1777604794 | 11.67° C | 85% | 1020.1 hPa | 0 mm | - | 15 W/m² | - |
| 1777604491 | 11.67° C | 85% | 1020.3 hPa | 0 mm | - | 20 W/m² | - |
| 1777604190 | 11.67° C | 85% | 1020.2 hPa | 0 mm | - | 26 W/m² | - |
| 1777603887 | 11.67° C | 85% | 1020.2 hPa | 0 mm | - | 30 W/m² | - |
* Rain latest hour (hover to see other rain measurements)
** Current wind speed in m/s (hover to see current wind gust speed)